This is the latest recevied weather packets stored in our database for station/object K2CAT. If no packets are shown the sender has not sent any weather packets the latest 10 day(s).
| Time | Temp. | Humidity | Pressure | Rain* | Wind** | Luminosity | Snow |
|---|---|---|---|---|---|---|---|
| 1777229477 | 17.78° C | 48% | 1019.4 hPa | 0 mm | - | 605 W/m² | - |
| 1777229174 | 17.78° C | 48% | 1019.3 hPa | 0 mm | - | 615 W/m² | - |
| 1777228871 | 18.33° C | 51% | 1019.3 hPa | 0 mm | - | 621 W/m² | - |
| 1777228567 | 17.78° C | 53% | 1019.5 hPa | 0 mm | - | 629 W/m² | - |
| 1777228263 | 17.78° C | 48% | 1019.4 hPa | 0 mm | - | 633 W/m² | - |
| 1777227963 | 17.78° C | 48% | 1019.6 hPa | 0 mm | - | 646 W/m² | - |
| 1777227658 | 17.22° C | 46% | 1019.6 hPa | 0 mm | - | 652 W/m² | - |
| 1777227354 | 17.78° C | 50% | 1019.6 hPa | 0 mm | - | 659 W/m² | - |
| 1777227050 | 17.22° C | 52% | 1019.6 hPa | 0 mm | - | 664 W/m² | - |
| 1777226745 | 16.67° C | 48% | 1019.7 hPa | 0 mm | - | 671 W/m² | - |
| 1777226440 | 17.22° C | 52% | 1019.8 hPa | 0 mm | - | 674 W/m² | - |
| 1777226135 | 17.22° C | 50% | 1019.6 hPa | 0 mm | - | 679 W/m² | - |
| 1777225832 | 16.67° C | 57% | 1019.6 hPa | 0 mm | - | 681 W/m² | - |
| 1777225528 | 16.11° C | 58% | 1019.9 hPa | 0 mm | - | 686 W/m² | - |
| 1777225226 | 16.11° C | 55% | 1019.8 hPa | 0 mm | - | 687 W/m² | - |
| 1777224922 | 16.67° C | 52% | 1019.7 hPa | 0 mm | - | 692 W/m² | - |
| 1777224619 | 16.11° C | 51% | 1019.7 hPa | 0 mm | - | 695 W/m² | - |
| 1777224314 | 16.67° C | 54% | 1020 hPa | 0 mm | - | 697 W/m² | - |
| 1777224010 | 16.11° C | 52% | 1020 hPa | 0 mm | - | 630 W/m² | - |
| 1777223709 | 16.11° C | 54% | 1020.1 hPa | 0 mm | - | 786 W/m² | - |
| 1777223409 | 15.56° C | 59% | 1020 hPa | 0 mm | - | 737 W/m² | - |
| 1777223108 | 15° C | 56% | 1020.1 hPa | 0 mm | - | 467 W/m² | - |
| 1777222803 | 15.56° C | 56% | 1020 hPa | 0 mm | - | 746 W/m² | - |
| 1777222502 | 15.56° C | 55% | 1020.1 hPa | 0 mm | - | 627 W/m² | - |
| 1777222199 | 15.56° C | 61% | 1020 hPa | 0 mm | - | 750 W/m² | - |
* Rain latest hour (hover to see other rain measurements)
** Current wind speed in m/s (hover to see current wind gust speed)